Darstellungsparameter: Aktuell verwendete Einstellungen:
Skalierung der Graphiken ... ?
xyx+y,   Skalierungsfaktor:      Skalierung: Modus: x, Faktor: 1
Darstellungszeitraum ... ?
Vom - - bis: - -   Zeitraum: 30.09.2010 - 30.09.2010
Min/Max/Avg-Anzeige ... ?
Zeige MMA aktuell
Zeige MMA Monat
Zeige MMA alles
Zeige --A aktuell
Zeige --A Monat
Zeige --A alles
Keine MMA-Anzeige
MMA:
Average (ber die Originaldaten)
MMA-Basis: 30.09.2010 - 30.09.2010
Quicknavigation für Darstellung... ?
Tage:      1T, 2T, 3T, 5T -1T -2T -3T -5T +1T +2T +3T +5T
Wochen: 1W, 2W, 3W -1W -2W -3W +1W +2W +3W
Monate: 1M, 3M, 6M -1M -3M -6M +1M +3M +6M
Jahre:    1J, 3J, 5J, 10J -1J -3J -5J -10J +1J +3J +5J +10J
Nutze für die Darstellung ... ?
Originaldaten oder Mittelwerte auf ...
Stundenbasis Tagesbasis Wochenbasis
Monatsbasis Jahresbasis      Datenbasis: Original-Daten
Darstellen als:
Statistik (Auto) Statistik J:M      Darstellung:
Zur Graphik,    zurück zur Übersicht aller Sensoren.
 
Tabellarische Datenbersicht: ?
 
Sensor: Nr:Datum:Temp:Abs-Feuchte:Windchill:Wind:
Aussen-T/F 1 30-09-2010 00:02:06 12.4 C 8.52 g/m*3 12.4 C 0 km/h
2 30-09-2010 00:14:06 12.3 C 8.47 g/m*3 12.3 C 0 km/h
3 30-09-2010 00:26:06 12.1 C 8.36 g/m*3 12.1 C 0 km/h
4 30-09-2010 00:38:06 12.1 C 8.47 g/m*3 12.1 C 0 km/h
5 30-09-2010 00:50:06 11.9 C 8.37 g/m*3 11.9 C 0 km/h
6 30-09-2010 01:02:06 11.7 C 8.37 g/m*3 11.7 C 0 km/h
7 30-09-2010 01:14:06 11.8 C 7.89 g/m*3 11.8 C 0 km/h
8 30-09-2010 01:26:06 11.8 C 7.79 g/m*3 11.8 C 0 km/h
9 30-09-2010 01:38:06 12 C 7.46 g/m*3 12 C 0 km/h
10 30-09-2010 01:50:06 12 C 7.25 g/m*3 12 C 0 km/h
11 30-09-2010 02:02:06 12.1 C 7.4 g/m*3 12.1 C 0 km/h
12 30-09-2010 02:14:06 11.5 C 7.54 g/m*3 11.5 C 0 km/h
13 30-09-2010 02:26:06 11.4 C 7.7 g/m*3 11.4 C 0 km/h
14 30-09-2010 02:38:06 11.1 C 7.66 g/m*3 11.1 C 0 km/h
15 30-09-2010 02:50:07 11.2 C 7.8 g/m*3 11.2 C 0 km/h
16 30-09-2010 03:02:07 11.3 C 7.85 g/m*3 11.3 C 0 km/h
17 30-09-2010 03:14:07 11.2 C 7.91 g/m*3 11.2 C 0 km/h
18 30-09-2010 03:26:07 11 C 7.81 g/m*3 11 C 0 km/h
19 30-09-2010 03:38:07 11.1 C 7.86 g/m*3 11.1 C 0 km/h
20 30-09-2010 03:50:07 11.2 C 7.91 g/m*3 11.2 C 0 km/h
21 30-09-2010 04:02:07 11.3 C 7.96 g/m*3 11.3 C 0 km/h
22 30-09-2010 04:14:07 11.2 C 7.91 g/m*3 11.2 C 0 km/h
23 30-09-2010 04:26:07 11 C 7.81 g/m*3 11 C 0 km/h
24 30-09-2010 04:38:07 10.8 C 7.81 g/m*3 10.8 C 0 km/h
25 30-09-2010 04:50:07 10.8 C 7.91 g/m*3 10.8 C 0 km/h
Sensor: Nr:Datum:Temp:Abs-Feuchte:Windchill:Wind:
Aussen-T/F 26 30-09-2010 05:02:07 10.8 C 7.91 g/m*3 10.8 C 0 km/h
27 30-09-2010 05:14:07 10.8 C 7.91 g/m*3 10.8 C 0 km/h
28 30-09-2010 05:26:07 10.8 C 7.81 g/m*3 10.8 C 0 km/h
29 30-09-2010 05:38:07 10.7 C 7.76 g/m*3 10.7 C 0 km/h
30 30-09-2010 05:50:07 10.7 C 7.56 g/m*3 10.7 C 0 km/h
31 30-09-2010 06:02:07 10.8 C 7.31 g/m*3 10.8 C 0 km/h
32 30-09-2010 06:14:07 10.8 C 7.31 g/m*3 10.8 C 0 km/h
33 30-09-2010 06:26:07 10.7 C 7.27 g/m*3 10.7 C 0 km/h
34 30-09-2010 06:38:05 10.6 C 7.32 g/m*3 10.6 C 0 km/h
35 30-09-2010 06:50:02 10.6 C 7.42 g/m*3 10.6 C 0 km/h
36 30-09-2010 07:02:02 10.7 C 7.56 g/m*3 10.7 C 0 km/h
37 30-09-2010 07:14:02 10.7 C 7.66 g/m*3 10.7 C 0 km/h
38 30-09-2010 07:26:02 10.6 C 7.61 g/m*3 10.6 C 0 km/h
39 30-09-2010 07:38:02 10.6 C 7.71 g/m*3 10.6 C 0 km/h
40 30-09-2010 07:50:01 10.7 C 7.76 g/m*3 10.7 C 0 km/h
41 30-09-2010 08:02:01 10.7 C 7.66 g/m*3 10.7 C 0 km/h
42 30-09-2010 08:14:02 10.9 C 7.76 g/m*3 10.9 C 0 km/h
43 30-09-2010 08:26:01 10.9 C 7.76 g/m*3 10.9 C 0 km/h
44 30-09-2010 08:38:01 11 C 7.81 g/m*3 11 C 0 km/h
45 30-09-2010 08:50:01 11 C 7.81 g/m*3 11 C 0 km/h
46 30-09-2010 09:02:01 11.2 C 7.91 g/m*3 11.2 C 0 km/h
47 30-09-2010 09:14:01 11.4 C 8.01 g/m*3 11.4 C 0 km/h
48 30-09-2010 09:26:01 11.4 C 7.8 g/m*3 11.4 C 0 km/h
49 30-09-2010 09:38:01 11.5 C 7.75 g/m*3 11.5 C 0 km/h
50 30-09-2010 09:50:02 11.5 C 7.85 g/m*3 11.5 C 0 km/h
Sensor: Nr:Datum:Temp:Abs-Feuchte:Windchill:Wind:
Aussen-T/F 51 30-09-2010 10:02:02 11.4 C 8.01 g/m*3 11.4 C 0 km/h
52 30-09-2010 10:14:02 11.4 C 8.11 g/m*3 11.4 C 0 km/h
53 30-09-2010 10:26:03 11.7 C 8.37 g/m*3 11.7 C 0 km/h
54 30-09-2010 10:38:02 11.8 C 8.42 g/m*3 11.8 C 0 km/h
55 30-09-2010 10:50:02 11.9 C 8.47 g/m*3 11.9 C 0 km/h
56 30-09-2010 11:02:02 12 C 8.42 g/m*3 12 C 0 km/h
57 30-09-2010 11:14:02 12 C 8.42 g/m*3 12 C 0 km/h
58 30-09-2010 11:26:02 11.8 C 8.42 g/m*3 11.8 C 0 km/h
59 30-09-2010 11:38:01 11.7 C 8.47 g/m*3 11.7 C 0 km/h
60 30-09-2010 11:50:02 11.8 C 8.63 g/m*3 11.8 C 0 km/h
61 30-09-2010 12:02:01 11.9 C 8.79 g/m*3 11.9 C 0 km/h
62 30-09-2010 12:14:01 11.9 C 8.9 g/m*3 11.9 C 0 km/h
63 30-09-2010 12:26:02 12 C 8.95 g/m*3 12 C 0 km/h
64 30-09-2010 12:38:02 12.1 C 9.01 g/m*3 12.1 C 0 km/h
65 30-09-2010 12:50:02 12 C 9.06 g/m*3 12 C 0 km/h
66 30-09-2010 13:02:02 12.4 C 9.4 g/m*3 12.4 C 0 km/h
67 30-09-2010 13:14:02 12.6 C 9.51 g/m*3 12.6 C 0 km/h
68 30-09-2010 13:26:02 12.6 C 9.51 g/m*3 12.6 C 0 km/h
69 30-09-2010 13:38:02 12.6 C 9.62 g/m*3 12.6 C 0 km/h
70 30-09-2010 13:50:01 12.7 C 9.68 g/m*3 12.7 C 0 km/h
71 30-09-2010 14:02:02 12.9 C 9.81 g/m*3 12.9 C 0 km/h
72 30-09-2010 14:14:02 13 C 9.87 g/m*3 13 C 0 km/h
73 30-09-2010 14:26:01 12.8 C 9.86 g/m*3 12.8 C 0 km/h
74 30-09-2010 14:38:01 12.9 C 9.92 g/m*3 12.9 C 0 km/h
75 30-09-2010 14:50:01 13.1 C 10.04 g/m*3 13.1 C 0 km/h
Sensor: Nr:Datum:Temp:Abs-Feuchte:Windchill:Wind:
Aussen-T/F 76 30-09-2010 15:02:02 13.2 C 10.1 g/m*3 13.2 C 0 km/h
77 30-09-2010 15:14:03 13.2 C 10.1 g/m*3 13.2 C 0 km/h
78 30-09-2010 15:26:01 13.4 C 10.23 g/m*3 13.4 C 0 km/h
79 30-09-2010 15:38:01 13.3 C 10.17 g/m*3 13.3 C 0 km/h
80 30-09-2010 15:50:01 13.2 C 9.99 g/m*3 13.2 C 0 km/h
81 30-09-2010 16:02:01 13.5 C 10.29 g/m*3 13.5 C 0 km/h
82 30-09-2010 16:14:01 13.5 C 10.29 g/m*3 13.5 C 0 km/h
83 30-09-2010 16:26:02 13.6 C 10.24 g/m*3 13.6 C 0 km/h
84 30-09-2010 16:38:01 13.3 C 10.05 g/m*3 13.3 C 0 km/h
85 30-09-2010 16:50:03 13.1 C 9.93 g/m*3 13.1 C 0 km/h
86 30-09-2010 17:02:02 13.1 C 9.93 g/m*3 13.1 C 0 km/h
87 30-09-2010 17:14:02 13 C 9.98 g/m*3 13 C 0 km/h
88 30-09-2010 17:26:02 13 C 9.98 g/m*3 13 C 0 km/h
89 30-09-2010 17:38:02 12.9 C 10.03 g/m*3 12.9 C 0 km/h
90 30-09-2010 17:50:02 12.8 C 9.97 g/m*3 12.8 C 0 km/h
91 30-09-2010 18:02:02 12.7 C 9.91 g/m*3 12.7 C 0 km/h
92 30-09-2010 18:14:02 12.5 C 9.78 g/m*3 12.5 C 0 km/h
93 30-09-2010 18:26:02 12.5 C 9.78 g/m*3 12.5 C 0 km/h
94 30-09-2010 18:38:02 12.4 C 9.83 g/m*3 12.4 C 0 km/h
95 30-09-2010 18:50:01 12.3 C 9.77 g/m*3 12.3 C 0 km/h
96 30-09-2010 19:02:02 12.2 C 9.71 g/m*3 12.2 C 0 km/h
97 30-09-2010 19:14:02 12.1 C 9.76 g/m*3 12.1 C 0 km/h
98 30-09-2010 19:26:02 12.1 C 9.76 g/m*3 12.1 C 0 km/h
99 30-09-2010 19:38:02 12.2 C 9.82 g/m*3 12.2 C 0 km/h
100 30-09-2010 19:50:02 12.1 C 9.87 g/m*3 12.1 C 0 km/h
Sensor: Nr:Datum:Temp:Abs-Feuchte:Windchill:Wind:
Aussen-T/F 101 30-09-2010 20:02:02 12.2 C 9.93 g/m*3 12.2 C 0 km/h
102 30-09-2010 20:14:02 12.2 C 9.93 g/m*3 12.2 C 0 km/h
103 30-09-2010 20:26:02 12.1 C 9.87 g/m*3 12.1 C 0 km/h
104 30-09-2010 20:38:01 12.1 C 9.87 g/m*3 12.1 C 0 km/h
105 30-09-2010 20:50:02 12.2 C 10.04 g/m*3 12.2 C 0 km/h
106 30-09-2010 21:02:01 12.1 C 9.97 g/m*3 12.1 C 0 km/h
107 30-09-2010 21:14:01 12.1 C 9.97 g/m*3 12.1 C 0 km/h
108 30-09-2010 21:26:02 12.1 C 9.97 g/m*3 12.1 C 0 km/h
109 30-09-2010 21:38:01 12.1 C 9.97 g/m*3 12.1 C 0 km/h
110 30-09-2010 21:50:02 12 C 9.91 g/m*3 12 C 0 km/h
111 30-09-2010 22:02:02 12 C 9.91 g/m*3 12 C 0 km/h
112 30-09-2010 22:14:02 12 C 9.91 g/m*3 12 C 0 km/h
113 30-09-2010 22:26:02 11.9 C 9.96 g/m*3 11.9 C 0 km/h
114 30-09-2010 22:38:02 11.9 C 9.96 g/m*3 11.9 C 0 km/h
115 30-09-2010 22:50:01 12 C 9.91 g/m*3 12 C 0 km/h
116 30-09-2010 23:03:03 12 C 9.91 g/m*3 12 C 0 km/h
117 30-09-2010 23:15:03 11.9 C 9.96 g/m*3 11.9 C 0 km/h
118 30-09-2010 23:27:03 12 C 10.02 g/m*3 12 C 0 km/h
119 30-09-2010 23:39:03 12.1 C 10.08 g/m*3 12.1 C 0 km/h
120 30-09-2010 23:51:03 12 C 10.02 g/m*3 12 C 0 km/h

Legende:
   Min
   Max


Maximal/Minimal-Werte vom 30.09.2010 - 30.09.2010

Sensor Min Max Avg
Temp
(Aussen-T/F)
10.6 °C
30-09-2010  06:38:05
13.6 °C
30-09-2010  16:26:02
11.9 °C
Abs-Feuchte
(Aussen-T/F)
7.25 g/m*3
30-09-2010  01:50:06
10.29 g/m*3
30-09-2010  16:02:01
8.79 g/m*3
Windchill
(Aussen-T/F)
10.6 C
30-09-2010  06:38:05
13.6 C
30-09-2010  16:26:02
11.8 C

Die Daten stammen von einer Davis Vantage Pro 2 Wetter-Station und werden unter Linux mit der Software wview2wettercgi und aufbereitet. Alle Angaben erfolgen ohne Gewähr für ihre Vollständigkeit oder Richtigkeit.
Kontakt: Rainer Krienke krienke@uni-koblenz.de . Meine Webseiten an der Uni Koblenz oder privat.
Version: $Revision: 0.78 $